Location: Sternwarte_Laufen
(47.9344°N, 12.9346°E)
Time: 00:22:27
(UTC+02:00)

ISS - Visible Passes

Search period start: 17 October 2019 00:00
Search period end: 27 October 2019 00:00
Orbit: 411 x 421 km, 51.6° (Epoch: 16 October)

Date Brightness Start Highest point End Pass type
(mag) Time Alt. Az. Time Alt. Az. Time Alt. Az.
24 Oct -1.1 06:49:34 10° S 06:52:05 20° SE 06:54:37 10° E visible
25 Oct -0.8 06:02:10 10° SSE 06:03:43 13° SE 06:05:17 10° ESE visible
26 Oct -2.6 06:48:12 10° SW 06:51:25 43° SSE 06:54:38 10° ENE visible
